DW2891 Weather Reports


Display with metric or nautical units.
time (UTC)temp
F
wind
direction
speed
MPH
gust
MPH
rain 1hr
in
rain 24hr
in
rain mn
in
humidity
%
barometer
mb
20260504223105 80 61 0.0 0.0 0.00 0.00 0.00 40 1008.1
20260504222604 80 61 0.0 0.0 0.00 0.00 0.00 33 1008.1
20260504222104 80 61 0.0 2.0 0.00 0.00 0.00 33 1008.1
20260504221604 80 14 0.0 1.0 0.00 0.00 0.00 35 1008.1
20260504220604 80 16 0.0 0.0 0.00 0.00 0.00 37 1008.3
20260504220104 80 16 0.0 0.0 0.00 0.00 0.00 33 1008.3
20260504215605 80 298 0.0 1.0 0.00 0.00 0.00 32 1008.4
20260504215104 79 298 0.0 8.0 0.00 0.00 0.00 37 1008.5
20260504214604 79 292 0.0 6.0 0.00 0.00 0.00 33 1008.5
20260504214104 79 325 1.0 2.0 0.00 0.00 0.00 35 1008.6
20260504213604 79 325 0.0 0.0 0.00 0.00 0.00 35 1008.6
20260504213104 79 261 0.0 2.0 0.00 0.00 0.00 37 1008.6
20260504212604 79 297 0.0 1.0 0.00 0.00 0.00 38 1008.8
20260504212105 79 297 0.0 0.0 0.00 0.00 0.00 39 1008.8
20260504211604 78 296 0.0 8.0 0.00 0.00 0.00 36 1008.7
20260504211104 78 318 0.0 2.0 0.00 0.00 0.00 35 1008.8
20260504210604 78 86 0.0 0.0 0.00 0.00 0.00 36 1008.8
20260504210104 78 86 1.0 6.0 0.00 0.00 0.00 36 1008.8
20260504205605 78 281 1.0 6.0 0.00 0.00 0.00 38 1008.9
20260504205104 77 84 0.0 0.0 0.00 0.00 0.00 36 1009.0
20260504204604 77 84 0.0 0.0 0.00 0.00 0.00 40 1009.1
20260504204105 77 84 0.0 1.0 0.00 0.00 0.00 38 1009.0
20260504203604 77 84 0.0 3.0 0.00 0.00 0.00 37 1009.0
20260504203104 78 49 1.0 5.0 0.00 0.00 0.00 35 1009.0
20260504202604 77 355 0.0 1.0 0.00 0.00 0.00 37 1009.2
20260504202104 77 315 0.0 5.0 0.00 0.00 0.00 39 1009.2
20260504201605 77 82 0.0 3.0 0.00 0.00 0.00 37 1009.2
20260504201104 77 72 0.0 3.0 0.00 0.00 0.00 35 1009.3
20260504200604 77 59 0.0 0.0 0.00 0.00 0.00 41 1009.3
20260504200104 77 59 0.0 0.0 0.00 0.00 0.00 41 1009.3
20260504195605 77 60 1.0 3.0 0.00 0.00 0.00 38 1009.4
20260504194104 76 346 1.0 5.0 0.00 0.00 0.00 44 1009.5
20260504193104 76 71 0.0 3.0 0.00 0.00 0.00 45 1009.4
20260504192104 76 284 0.0 0.0 0.00 0.00 0.00 48 1009.2
20260504191604 76 284 0.0 0.0 0.00 0.00 0.00 54 1009.3
20260504191104 76 283 0.0 1.0 0.00 0.00 0.00 47 1009.3
20260504190604 75 65 0.0 0.0 0.00 0.00 0.00 43 1009.4
20260504190105 75 66 1.0 3.0 0.00 0.00 0.00 44 1009.4
20260504185105 75 109 0.0 2.0 0.00 0.00 0.00 51 1009.5
20260504184604 74 111 0.0 2.0 0.00 0.00 0.00 47 1009.5
20260504184105 74 86 0.0 3.0 0.00 0.00 0.00 48 1009.6
20260504183604 74 325 0.0 0.0 0.00 0.00 0.00 47 1009.6
20260504183104 73 321 1.0 5.0 0.00 0.00 0.00 48 1009.6
20260504182604 73 303 1.0 8.0 0.00 0.00 0.00 50 1009.6
20260504181605 73 77 0.0 0.0 0.00 0.00 0.00 50 1009.5
20260504181104 73 81 0.0 0.0 0.00 0.00 0.00 51 1009.6
20260504180604 73 82 0.0 3.0 0.00 0.00 0.00 53 1009.6
20260504180105 73 88 0.0 0.0 0.00 0.00 0.00 53 1009.5
20260504175604 73 90 2.0 8.0 0.00 0.00 0.00 50 1009.5
20260504175104 75 63 0.0 0.0 0.00 0.00 0.00 50 1009.5
20260504174604 74 72 0.0 0.0 0.00 0.00 0.00 48 1009.5
20260504174105 75 72 0.0 0.0 0.00 0.00 0.00 48 1009.5
20260504173104 75 322 0.0 0.0 0.00 0.00 0.00 47 1009.4
20260504172604 76 317 0.0 0.0 0.00 0.00 0.00 46 1009.4
20260504172105 76 317 0.0 0.0 0.00 0.00 0.00 46 1009.4
20260504171604 75 60 0.0 0.0 0.00 0.00 0.00 44 1009.3
20260504170104 74 62 0.0 0.0 0.00 0.00 0.00 48 1009.4
20260504160104 73 306 0.0 6.0 0.00 0.00 0.00 44 1009.4
20260504151104 68 346 0.0 5.0 0.00 0.00 0.00 50 1009.5
20260504150103 66 317 2.0 9.0 0.00 0.00 0.00 52 1009.5
20260504140604 63 344 0.0 2.0 0.00 0.00 0.00 63 1009.2
20260504140104 63 313 1.0 5.0 0.00 0.00 0.00 62 1009.2
20260504130603 62 5 0.0 0.0 0.00 0.00 0.00 61 1008.8
20260504130104 62 5 0.0 0.0 0.00 0.00 0.00 61 1008.7
20260504120104 64 5 0.0 2.0 0.00 0.00 0.00 55 1008.9
20260504110603 67 282 0.0 2.0 0.00 0.00 0.00 50 1008.7
20260504110103 67 30 0.0 0.0 0.00 0.00 0.00 52 1008.8
20260504100604 67 312 3.0 14.0 0.00 0.00 0.00 49 1008.8
20260504100104 67 327 1.0 8.0 0.00 0.00 0.00 52 1008.7
20260504090104 69 327 1.0 8.0 0.00 0.00 0.00 45 1008.4
20260504080604 68 325 2.0 8.0 0.00 0.00 0.00 49 1008.4
20260504080104 68 355 0.0 0.0 0.00 0.00 0.00 50 1008.4
20260504070104 68 325 0.0 2.0 0.00 0.00 0.00 46 1008.8
20260504060104 70 240 0.0 0.0 0.00 0.00 0.00 40 1008.6
20260504050603 69 240 0.0 0.0 0.00 0.00 0.00 42 1008.8
20260504050104 69 240 0.0 0.0 0.00 0.00 0.00 41 1008.8
20260504045603 69 240 0.0 0.0 0.00 0.00 0.00 42 1008.9
20260504045103 69 240 0.0 0.0 0.00 0.00 0.00 41 1008.9
20260504044603 69 240 0.0 0.0 0.00 0.00 0.00 44 1009.0
20260504044103 69 240 0.0 0.0 0.00 0.00 0.00 43 1009.0
20260504043603 69 240 0.0 0.0 0.00 0.00 0.00 42 1009.0
20260504043103 69 240 0.0 0.0 0.00 0.00 0.00 43 1009.0
20260504042603 70 240 0.0 0.0 0.00 0.00 0.00 42 1009.0
20260504042103 70 240 0.0 0.0 0.00 0.00 0.00 42 1009.0
20260504041104 70 240 0.0 0.0 0.00 0.00 0.00 40 1009.0
20260504040603 70 240 0.0 0.0 0.00 0.00 0.00 41 1009.1
20260504040103 70 240 0.0 0.0 0.00 0.00 0.00 40 1009.1
20260504035603 70 240 0.0 0.0 0.00 0.00 0.00 40 1009.1
20260504035105 69 240 0.0 0.0 0.00 0.00 0.00 40 1009.1
20260504034605 70 240 0.0 0.0 0.00 0.00 0.00 42 1009.1
20260504034105 70 240 0.0 0.0 0.00 0.00 0.00 40 1009.1
20260504032605 69 240 0.0 0.0 0.00 0.00 0.00 43 1009.2
20260504032105 69 240 0.0 0.0 0.00 0.00 0.00 44 1009.2
20260504031605 69 240 0.0 0.0 0.00 0.00 0.00 44 1009.2
20260504031104 69 240 0.0 0.0 0.00 0.00 0.00 45 1009.2
20260504030605 69 240 0.0 0.0 0.00 0.00 0.00 45 1009.2
20260504030105 69 240 0.0 0.0 0.00 0.00 0.00 45 1009.4
20260504025605 69 240 0.0 0.0 0.00 0.00 0.00 47 1009.3
20260504025105 70 240 0.0 0.0 0.00 0.00 0.00 45 1009.3
20260504024605 70 240 0.0 0.0 0.00 0.00 0.00 46 1009.3
20260504024105 70 240 0.0 0.0 0.00 0.00 0.00 47 1009.3
20260504023605 70 240 0.0 0.0 0.00 0.00 0.00 46 1009.3
20260504023105 70 240 0.0 0.0 0.00 0.00 0.00 46 1009.3
20260504022605 70 240 0.0 0.0 0.00 0.00 0.00 46 1009.3
20260504022105 70 240 0.0 0.0 0.00 0.00 0.00 45 1009.4
20260504021605 71 265 0.0 0.0 0.00 0.00 0.00 46 1009.4
20260504021105 71 264 0.0 0.0 0.00 0.00 0.00 45 1009.4
20260504020605 71 264 0.0 0.0 0.00 0.00 0.00 45 1009.4
20260504020105 71 265 0.0 0.0 0.00 0.00 0.00 45 1009.4
20260504015605 71 264 0.0 0.0 0.00 0.00 0.00 44 1009.5
20260504015105 71 264 0.0 2.0 0.00 0.00 0.00 46 1009.5
20260504014605 71 355 0.0 0.0 0.00 0.00 0.00 47 1009.5
20260504014105 72 355 0.0 0.0 0.00 0.00 0.00 45 1009.5
20260504013605 72 355 0.0 0.0 0.00 0.00 0.00 47 1009.6
20260504013105 72 355 0.0 0.0 0.00 0.00 0.00 46 1009.6
20260504012605 72 355 0.0 0.0 0.00 0.00 0.00 46 1009.6
20260504012105 72 355 0.0 0.0 0.00 0.00 0.00 46 1009.7
20260504011105 73 355 0.0 0.0 0.00 0.00 0.00 46 1009.9
20260504010606 73 355 0.0 0.0 0.00 0.00 0.00 46 1009.9
20260504010105 73 355 0.0 0.0 0.00 0.00 0.00 46 1009.9
20260504005605 74 355 0.0 0.0 0.00 0.00 0.00 46 1010.0
20260504005106 74 355 0.0 0.0 0.00 0.00 0.00 47 1010.1
20260504004605 74 355 0.0 0.0 0.00 0.00 0.00 45 1010.1
20260504004105 74 355 0.0 0.0 0.00 0.00 0.00 45 1010.1
20260504003605 75 355 0.0 0.0 0.00 0.00 0.00 43 1010.1
20260504003105 75 355 0.0 0.0 0.00 0.00 0.00 44 1010.2
20260504002605 76 355 0.0 0.0 0.00 0.00 0.00 40 1010.2
20260504002105 76 355 0.0 0.0 0.00 0.00 0.00 41 1010.3
20260504001605 77 355 0.0 0.0 0.00 0.00 0.00 40 1010.3
20260504001105 78 355 0.0 0.0 0.00 0.00 0.00 40 1010.3
20260504000605 78 355 1.0 5.0 0.00 0.00 0.00 37 1010.5
20260504000106 78 306 1.0 9.0 0.00 0.00 0.00 34 1010.5
20260503235604 78 309 0.0 10.0 0.00 0.00 0.00 34 1010.6
20260503235105 78 302 0.0 6.0 0.00 0.00 0.00 36 1010.6
20260503234105 78 311 0.0 6.0 0.00 0.00 0.00 35 1010.6
20260503233604 78 314 0.0 0.0 0.00 0.00 0.00 37 1010.6
20260503233105 77 349 0.0 0.0 0.00 0.00 0.00 36 1010.6
20260503232605 77 263 0.0 0.0 0.00 0.00 0.00 38 1010.7
20260503232104 77 263 0.0 0.0 0.00 0.00 0.00 38 1010.8
20260503231605 77 263 0.0 1.0 0.00 0.00 0.00 38 1010.9
20260503231105 78 262 0.0 1.0 0.00 0.00 0.00 36 1011.0
20260503230605 78 262 0.0 1.0 0.00 0.00 0.00 34 1011.1
20260503230105 79 262 0.0 1.0 0.00 0.00 0.00 35 1011.1
20260503225604 79 262 0.0 1.0 0.00 0.00 0.00 33 1011.1
20260503225105 79 261 0.0 2.0 0.00 0.00 0.00 34 1011.2
20260503224604 78 341 0.0 0.0 0.00 0.00 0.00 36 1011.2
20260503223605 78 268 0.0 3.0 0.00 0.00 0.00 37 1011.4